| time (UTC) | temp C | wind direction | speed KPH | gust KPH | rain 1hr cm | rain 24hr cm | rain mn cm | humidity % | barometer mb |
| 20260503233503 | 15 | 292 | 8.0 | 20.9 | 0.00 | 0.00 | 0.00 | 43 | 1015.8 |
| 20260503233003 | 15 | 224 | 8.0 | 20.9 | 0.00 | 0.00 | 0.00 | 42 | 1015.8 |
| 20260503232503 | 15 | 203 | 8.0 | 27.4 | 0.00 | 0.00 | 0.00 | 42 | 1015.8 |
| 20260503232003 | 15 | 193 | 12.9 | 27.4 | 0.00 | 0.00 | 0.00 | 42 | 1015.8 |
| 20260503231503 | 15 | 190 | 9.7 | 25.7 | 0.00 | 0.00 | 0.00 | 41 | 1015.8 |
| 20260503231003 | 16 | 202 | 6.4 | 25.7 | 0.00 | 0.00 | 0.00 | 41 | 1015.8 |
| 20260503230503 | 16 | 228 | 8.0 | 25.7 | 0.00 | 0.00 | 0.00 | 41 | 1015.8 |
| 20260503230003 | 16 | 245 | 8.0 | 17.7 | 0.00 | 0.00 | 0.00 | 41 | 1015.8 |
| 20260503225503 | 16 | 242 | 6.4 | 12.9 | 0.00 | 0.00 | 0.00 | 41 | 1015.8 |
| 20260503225003 | 16 | 228 | 6.4 | 22.5 | 0.00 | 0.00 | 0.00 | 41 | 1015.8 |
| 20260503224503 | 16 | 212 | 8.0 | 22.5 | 0.00 | 0.00 | 0.00 | 44 | 1015.9 |
| 20260503224003 | 16 | 210 | 9.7 | 29.0 | 0.00 | 0.00 | 0.00 | 42 | 1016.0 |
| 20260503223503 | 16 | 216 | 8.0 | 29.0 | 0.00 | 0.00 | 0.00 | 42 | 1016.0 |
| 20260503223003 | 16 | 216 | 8.0 | 27.4 | 0.00 | 0.00 | 0.00 | 41 | 1016.1 |
| 20260503222503 | 15 | 218 | 8.0 | 24.1 | 0.00 | 0.00 | 0.00 | 43 | 1016.1 |
| 20260503222003 | 15 | 228 | 6.4 | 17.7 | 0.00 | 0.00 | 0.00 | 43 | 1016.1 |
| 20260503221503 | 15 | 226 | 8.0 | 27.4 | 0.00 | 0.00 | 0.00 | 42 | 1016.1 |
| 20260503221003 | 15 | 229 | 8.0 | 27.4 | 0.00 | 0.00 | 0.00 | 42 | 1016.1 |
| 20260503220503 | 15 | 230 | 8.0 | 17.7 | 0.00 | 0.00 | 0.00 | 45 | 1016.2 |
| 20260503220003 | 15 | 231 | 8.0 | 19.3 | 0.00 | 0.00 | 0.00 | 43 | 1016.1 |
| 20260503215503 | 15 | 231 | 8.0 | 19.3 | 0.00 | 0.00 | 0.00 | 42 | 1016.1 |
| 20260503215003 | 15 | 216 | 8.0 | 19.3 | 0.00 | 0.00 | 0.00 | 43 | 1016.2 |
| 20260503214503 | 16 | 207 | 6.4 | 24.1 | 0.00 | 0.00 | 0.00 | 41 | 1016.1 |
| 20260503214003 | 16 | 210 | 4.8 | 24.1 | 0.00 | 0.00 | 0.00 | 41 | 1016.2 |
| 20260503213503 | 16 | 210 | 6.4 | 20.9 | 0.00 | 0.00 | 0.00 | 43 | 1016.1 |
| 20260503213003 | 16 | 218 | 6.4 | 20.9 | 0.00 | 0.00 | 0.00 | 43 | 1016.1 |
| 20260503212503 | 16 | 230 | 8.0 | 35.4 | 0.00 | 0.00 | 0.00 | 42 | 1016.0 |
| 20260503212003 | 16 | 223 | 8.0 | 35.4 | 0.00 | 0.00 | 0.00 | 42 | 1016.1 |
| 20260503211503 | 16 | 215 | 6.4 | 24.1 | 0.00 | 0.00 | 0.00 | 41 | 1016.1 |
| 20260503211003 | 16 | 216 | 6.4 | 24.1 | 0.00 | 0.00 | 0.00 | 43 | 1016.1 |
| 20260503210503 | 16 | 219 | 8.0 | 25.7 | 0.00 | 0.00 | 0.00 | 42 | 1016.1 |
| 20260503210003 | 16 | 213 | 11.3 | 25.7 | 0.00 | 0.00 | 0.00 | 40 | 1016.1 |
| 20260503205718 | 16 | 213 | 9.7 | 25.7 | 0.00 | 0.00 | 0.00 | 39 | 1016.0 |
| 20260503205003 | 16 | 222 | 6.4 | 24.1 | 0.00 | 0.00 | 0.00 | 42 | 1016.0 |
| 20260503204503 | 16 | 220 | 8.0 | 24.1 | 0.00 | 0.00 | 0.00 | 40 | 1016.2 |
| 20260503204217 | 16 | 211 | 9.7 | 35.4 | 0.00 | 0.00 | 0.00 | 43 | 1016.1 |
| 20260503203503 | 16 | 219 | 9.7 | 35.4 | 0.00 | 0.00 | 0.00 | 40 | 1016.2 |
| 20260503203217 | 16 | 228 | 8.0 | 33.8 | 0.00 | 0.00 | 0.00 | 40 | 1016.2 |
| 20260503202503 | 16 | 210 | 8.0 | 29.0 | 0.00 | 0.00 | 0.00 | 43 | 1016.2 |
| 20260503202003 | 16 | 198 | 8.0 | 29.0 | 0.00 | 0.00 | 0.00 | 40 | 1016.2 |
| 20260503201718 | 16 | 198 | 8.0 | 29.0 | 0.00 | 0.00 | 0.00 | 40 | 1016.3 |
| 20260503201003 | 16 | 226 | 9.7 | 22.5 | 0.00 | 0.00 | 0.00 | 45 | 1016.4 |
| 20260503200503 | 16 | 246 | 8.0 | 19.3 | 0.00 | 0.00 | 0.00 | 43 | 1016.5 |
| 20260503200003 | 16 | 239 | 8.0 | 17.7 | 0.00 | 0.00 | 0.00 | 45 | 1016.8 |
| 20260503195503 | 16 | 231 | 6.4 | 17.7 | 0.00 | 0.00 | 0.00 | 42 | 1016.6 |
| 20260503195003 | 16 | 219 | 6.4 | 17.7 | 0.00 | 0.00 | 0.00 | 44 | 1016.7 |
| 20260503194503 | 16 | 222 | 6.4 | 17.7 | 0.00 | 0.00 | 0.00 | 44 | 1016.8 |
| 20260503194003 | 16 | 228 | 4.8 | 12.9 | 0.00 | 0.00 | 0.00 | 47 | 1017.0 |
| 20260503193503 | 16 | 243 | 6.4 | 16.1 | 0.00 | 0.00 | 0.00 | 49 | 1017.0 |
| 20260503193003 | 16 | 260 | 6.4 | 16.1 | 0.00 | 0.00 | 0.00 | 46 | 1017.1 |
| 20260503192503 | 16 | 262 | 6.4 | 16.1 | 0.00 | 0.00 | 0.00 | 52 | 1017.1 |
| 20260503192216 | 16 | 263 | 4.8 | 16.1 | 0.00 | 0.00 | 0.00 | 51 | 1017.2 |
| 20260503191503 | 16 | 266 | 8.0 | 17.7 | 0.00 | 0.00 | 0.00 | 48 | 1017.3 |
| 20260503191003 | 16 | 267 | 8.0 | 17.7 | 0.00 | 0.00 | 0.00 | 45 | 1017.4 |
| 20260503190503 | 16 | 264 | 6.4 | 17.7 | 0.00 | 0.00 | 0.00 | 44 | 1017.5 |
| 20260503190216 | 17 | 260 | 8.0 | 17.7 | 0.00 | 0.00 | 0.00 | 45 | 1017.5 |
| 20260503185717 | 16 | 259 | 6.4 | 17.7 | 0.00 | 0.00 | 0.00 | 50 | 1017.6 |
| 20260503185003 | 16 | 271 | 8.0 | 19.3 | 0.00 | 0.00 | 0.00 | 47 | 1017.7 |
| 20260503184503 | 16 | 272 | 9.7 | 24.1 | 0.00 | 0.00 | 0.00 | 43 | 1017.7 |
| 20260503184003 | 16 | 266 | 8.0 | 24.1 | 0.00 | 0.00 | 0.00 | 43 | 1017.8 |
| 20260503183503 | 17 | 260 | 6.4 | 12.9 | 0.00 | 0.00 | 0.00 | 49 | 1017.7 |
| 20260503183003 | 17 | 264 | 8.0 | 16.1 | 0.00 | 0.00 | 0.00 | 44 | 1017.8 |
| 20260503182503 | 17 | 249 | 8.0 | 16.1 | 0.00 | 0.00 | 0.00 | 47 | 1017.8 |
| 20260503182003 | 16 | 237 | 8.0 | 19.3 | 0.00 | 0.00 | 0.00 | 46 | 1017.9 |
| 20260503181504 | 17 | 250 | 8.0 | 19.3 | 0.00 | 0.00 | 0.00 | 44 | 1018.0 |
| 20260503181003 | 16 | 253 | 8.0 | 19.3 | 0.00 | 0.00 | 0.00 | 46 | 1018.0 |
| 20260503180503 | 16 | 247 | 8.0 | 19.3 | 0.00 | 0.00 | 0.00 | 44 | 1018.0 |
| 20260503180003 | 16 | 248 | 8.0 | 16.1 | 0.00 | 0.00 | 0.00 | 43 | 1018.1 |
| 20260503175503 | 16 | 230 | 8.0 | 27.4 | 0.00 | 0.00 | 0.00 | 47 | 1018.2 |
| 20260503175003 | 16 | 240 | 9.7 | 27.4 | 0.00 | 0.00 | 0.00 | 46 | 1018.2 |
| 20260503174503 | 16 | 258 | 6.4 | 17.7 | 0.00 | 0.00 | 0.00 | 46 | 1018.3 |
| 20260503174003 | 16 | 241 | 6.4 | 16.1 | 0.00 | 0.00 | 0.00 | 46 | 1018.3 |
| 20260503173503 | 16 | 243 | 8.0 | 16.1 | 0.00 | 0.00 | 0.00 | 44 | 1018.4 |
| 20260503173003 | 16 | 248 | 8.0 | 14.5 | 0.00 | 0.00 | 0.00 | 47 | 1018.4 |
| 20260503172503 | 16 | 247 | 8.0 | 14.5 | 0.00 | 0.00 | 0.00 | 50 | 1018.6 |
| 20260503172003 | 16 | 255 | 9.7 | 16.1 | 0.00 | 0.00 | 0.00 | 46 | 1018.6 |
| 20260503171503 | 16 | 246 | 8.0 | 19.3 | 0.00 | 0.00 | 0.00 | 45 | 1018.8 |
| 20260503171003 | 16 | 239 | 8.0 | 19.3 | 0.00 | 0.00 | 0.00 | 46 | 1018.7 |
| 20260503170716 | 16 | 238 | 8.0 | 19.3 | 0.00 | 0.00 | 0.00 | 45 | 1018.7 |
| 20260503170218 | 15 | 243 | 8.0 | 17.7 | 0.00 | 0.00 | 0.00 | 44 | 1018.8 |
| 20260503151003 | 13 | 202 | 8.0 | 20.9 | 0.00 | 0.00 | 0.00 | 47 | 1019.7 |
| 20260503150718 | 13 | 198 | 9.7 | 20.9 | 0.00 | 0.00 | 0.00 | 46 | 1019.6 |
| 20260503150217 | 13 | 202 | 8.0 | 20.9 | 0.00 | 0.00 | 0.00 | 45 | 1019.6 |
| 20260503131003 | 9 | 188 | 4.8 | 14.5 | 0.00 | 0.00 | 0.00 | 50 | 1020.3 |
| 20260503130503 | 8 | 185 | 4.8 | 14.5 | 0.00 | 0.00 | 0.00 | 53 | 1020.4 |
| 20260503130218 | 8 | 184 | 4.8 | 12.9 | 0.00 | 0.00 | 0.00 | 52 | 1020.4 |
| 20260503110503 | 3 | 191 | 4.8 | 11.3 | 0.00 | 0.00 | 0.00 | 75 | 1020.1 |
| 20260503090503 | 3 | 192 | 3.2 | 9.7 | 0.00 | 0.03 | 0.00 | 79 | 1020.0 |
| 20260503081503 | 3 | 192 | 3.2 | 8.0 | 0.00 | 0.03 | 0.00 | 79 | 1020.1 |
| 20260503081003 | 3 | 193 | 4.8 | 11.3 | 0.00 | 0.03 | 0.00 | 79 | 1020.0 |
| 20260503080503 | 3 | 194 | 4.8 | 11.3 | 0.00 | 0.03 | 0.00 | 79 | 1020.0 |
| 20260503072503 | 3 | 195 | 4.8 | 9.7 | 0.00 | 0.05 | 0.00 | 80 | 1020.1 |
| 20260503072003 | 3 | 196 | 4.8 | 11.3 | 0.00 | 0.08 | 0.00 | 80 | 1020.1 |
| 20260503071717 | 3 | 196 | 4.8 | 11.3 | 0.00 | 0.08 | 0.00 | 80 | 1020.1 |
| 20260503071003 | 3 | 195 | 4.8 | 9.7 | 0.00 | 0.08 | 0.00 | 80 | 1020.0 |
| 20260503070503 | 3 | 195 | 4.8 | 8.0 | 0.00 | 0.08 | 0.00 | 80 | 1020.1 |
| 20260503055003 | 3 | 259 | 3.2 | 4.8 | 0.00 | 0.08 | 0.00 | 81 | 1020.5 |
| 20260503054503 | 3 | 259 | 3.2 | 4.8 | 0.00 | 0.10 | 0.00 | 80 | 1020.5 |
| 20260503054003 | 3 | 259 | 1.6 | 4.8 | 0.00 | 0.10 | 0.00 | 80 | 1020.5 |
| 20260503053716 | 3 | 259 | 1.6 | 4.8 | 0.00 | 0.10 | 0.00 | 80 | 1020.5 |
| 20260503053003 | 3 | 259 | 1.6 | 4.8 | 0.00 | 0.13 | 0.00 | 80 | 1020.5 |
| 20260503052503 | 3 | 259 | 1.6 | 3.2 | 0.00 | 0.13 | 0.00 | 80 | 1020.5 |
| 20260503052217 | 3 | 259 | 1.6 | 3.2 | 0.00 | 0.13 | 0.00 | 80 | 1020.5 |
| 20260503051503 | 3 | 259 | 1.6 | 3.2 | 0.00 | 0.13 | 0.00 | 80 | 1020.6 |
| 20260503051217 | 3 | 259 | 1.6 | 3.2 | 0.00 | 0.15 | 0.00 | 80 | 1020.6 |
| 20260503050718 | 3 | 259 | 1.6 | 3.2 | 0.00 | 0.15 | 0.00 | 80 | 1020.7 |
| 20260503050003 | 3 | 259 | 1.6 | 6.4 | 0.00 | 0.15 | 0.00 | 80 | 1020.7 |
| 20260503045503 | 3 | 259 | 1.6 | 6.4 | 0.00 | 0.15 | 0.00 | 80 | 1020.7 |
| 20260503045003 | 3 | 259 | 1.6 | 3.2 | 0.00 | 0.15 | 0.00 | 79 | 1020.7 |
| 20260503044503 | 3 | 259 | 1.6 | 4.8 | 0.00 | 0.15 | 0.00 | 79 | 1020.7 |
| 20260503044003 | 3 | 259 | 1.6 | 4.8 | 0.00 | 0.15 | 0.00 | 79 | 1020.7 |
| 20260503043718 | 3 | 259 | 0.0 | 3.2 | 0.00 | 0.15 | 0.00 | 79 | 1020.7 |
| 20260503043003 | 4 | 0 | 0.0 | 0.0 | 0.00 | 0.15 | 0.00 | 77 | 1020.7 |
| 20260503042718 | 4 | 0 | 0.0 | 0.0 | 0.00 | 0.18 | 0.00 | 77 | 1020.7 |
| 20260503042003 | 4 | 0 | 0.0 | 0.0 | 0.00 | 0.18 | 0.00 | 76 | 1020.7 |
| 20260503041718 | 4 | 259 | 0.0 | 1.6 | 0.00 | 0.18 | 0.00 | 76 | 1020.7 |
| 20260503041003 | 4 | 259 | 1.6 | 4.8 | 0.00 | 0.18 | 0.00 | 75 | 1020.7 |
| 20260503040503 | 5 | 259 | 1.6 | 4.8 | 0.00 | 0.18 | 0.00 | 74 | 1020.8 |
| 20260503040004 | 5 | 259 | 3.2 | 4.8 | 0.00 | 0.18 | 0.00 | 74 | 1020.8 |
| 20260503035503 | 5 | 259 | 3.2 | 4.8 | 0.00 | 0.18 | 0.18 | 74 | 1020.9 |
| 20260503035003 | 5 | 259 | 3.2 | 6.4 | 0.00 | 0.18 | 0.18 | 74 | 1020.8 |
| 20260503034503 | 5 | 259 | 3.2 | 6.4 | 0.00 | 0.20 | 0.18 | 74 | 1020.8 |
| 20260503034003 | 5 | 259 | 3.2 | 6.4 | 0.00 | 0.20 | 0.18 | 74 | 1020.8 |
| 20260503033503 | 5 | 259 | 3.2 | 6.4 | 0.00 | 0.20 | 0.18 | 74 | 1020.9 |
| 20260503033003 | 5 | 260 | 1.6 | 6.4 | 0.00 | 0.20 | 0.18 | 74 | 1020.9 |
| 20260503032503 | 5 | 0 | 0.0 | 0.0 | 0.00 | 0.20 | 0.18 | 74 | 1020.9 |
| 20260503032003 | 5 | 0 | 0.0 | 0.0 | 0.00 | 0.20 | 0.18 | 73 | 1020.9 |
| 20260503031503 | 5 | 0 | 0.0 | 0.0 | 0.00 | 0.20 | 0.18 | 73 | 1021.0 |
| 20260503031003 | 5 | 0 | 0.0 | 0.0 | 0.00 | 0.20 | 0.18 | 73 | 1020.9 |
| 20260503030717 | 5 | 0 | 0.0 | 0.0 | 0.00 | 0.20 | 0.18 | 73 | 1021.0 |
| 20260503030216 | 5 | 0 | 0.0 | 0.0 | 0.00 | 0.20 | 0.18 | 73 | 1021.0 |
| 20260503025717 | 5 | 0 | 0.0 | 0.0 | 0.00 | 0.20 | 0.18 | 72 | 1021.0 |
| 20260503025003 | 5 | 0 | 0.0 | 0.0 | 0.00 | 0.20 | 0.18 | 72 | 1021.0 |
| 20260503024503 | 5 | 0 | 0.0 | 0.0 | 0.00 | 0.20 | 0.18 | 72 | 1021.1 |
| 20260503024003 | 5 | 0 | 0.0 | 0.0 | 0.00 | 0.20 | 0.18 | 72 | 1021.2 |
| 20260503023503 | 5 | 0 | 0.0 | 0.0 | 0.00 | 0.20 | 0.18 | 72 | 1021.2 |
| 20260503023003 | 5 | 0 | 0.0 | 0.0 | 0.00 | 0.20 | 0.18 | 72 | 1021.3 |
| 20260503022503 | 5 | 0 | 0.0 | 0.0 | 0.00 | 0.20 | 0.18 | 71 | 1021.3 |
| 20260503022003 | 6 | 0 | 0.0 | 0.0 | 0.00 | 0.20 | 0.18 | 71 | 1021.3 |
| 20260503021503 | 6 | 264 | 0.0 | 3.2 | 0.00 | 0.20 | 0.18 | 70 | 1021.2 |
| 20260503021218 | 6 | 264 | 0.0 | 3.2 | 0.00 | 0.20 | 0.18 | 70 | 1021.2 |
| 20260503020717 | 6 | 264 | 1.6 | 3.2 | 0.00 | 0.20 | 0.18 | 70 | 1021.2 |
| 20260503020003 | 6 | 264 | 1.6 | 3.2 | 0.00 | 0.20 | 0.18 | 69 | 1021.3 |
| 20260503015503 | 6 | 264 | 1.6 | 4.8 | 0.00 | 0.20 | 0.18 | 68 | 1021.3 |
| 20260503015003 | 6 | 264 | 1.6 | 4.8 | 0.00 | 0.20 | 0.18 | 68 | 1021.3 |
| 20260503014503 | 6 | 264 | 1.6 | 4.8 | 0.00 | 0.20 | 0.18 | 68 | 1021.3 |
| 20260503014003 | 6 | 264 | 0.0 | 4.8 | 0.00 | 0.20 | 0.18 | 68 | 1021.3 |
| 20260503013503 | 6 | 0 | 0.0 | 0.0 | 0.00 | 0.20 | 0.18 | 68 | 1021.2 |
| 20260503013003 | 6 | 264 | 0.0 | 3.2 | 0.00 | 0.20 | 0.18 | 67 | 1021.3 |
| 20260503012503 | 6 | 264 | 0.0 | 3.2 | 0.00 | 0.20 | 0.18 | 67 | 1021.3 |
| 20260503012003 | 6 | 264 | 0.0 | 3.2 | 0.00 | 0.20 | 0.18 | 66 | 1021.3 |
| 20260503011716 | 6 | 0 | 0.0 | 0.0 | 0.00 | 0.20 | 0.18 | 66 | 1021.3 |
| 20260503011003 | 6 | 0 | 0.0 | 0.0 | 0.00 | 0.20 | 0.18 | 66 | 1021.3 |
| 20260503010503 | 6 | 264 | 0.0 | 3.2 | 0.00 | 0.20 | 0.18 | 66 | 1021.2 |
| 20260503010218 | 6 | 264 | 0.0 | 4.8 | 0.00 | 0.20 | 0.18 | 66 | 1021.2 |
| 20260503005716 | 6 | 264 | 0.0 | 4.8 | 0.00 | 0.20 | 0.18 | 66 | 1021.2 |
| 20260503005217 | 6 | 264 | 0.0 | 3.2 | 0.00 | 0.20 | 0.18 | 66 | 1021.2 |
| 20260503004503 | 6 | 264 | 1.6 | 3.2 | 0.00 | 0.20 | 0.18 | 66 | 1021.2 |
| 20260503004003 | 6 | 264 | 0.0 | 3.2 | 0.00 | 0.20 | 0.18 | 65 | 1021.1 |
| 20260503003503 | 6 | 264 | 0.0 | 3.2 | 0.00 | 0.20 | 0.18 | 66 | 1021.2 |
| 20260503003003 | 6 | 264 | 0.0 | 3.2 | 0.00 | 0.20 | 0.18 | 66 | 1021.2 |
| 20260503002716 | 6 | 264 | 0.0 | 3.2 | 0.00 | 0.20 | 0.18 | 66 | 1021.2 |
| 20260503002003 | 6 | 0 | 0.0 | 0.0 | 0.00 | 0.20 | 0.18 | 67 | 1021.1 |
| 20260503001503 | 6 | 0 | 0.0 | 0.0 | 0.00 | 0.20 | 0.18 | 67 | 1021.1 |
| 20260503001003 | 6 | 0 | 0.0 | 0.0 | 0.00 | 0.20 | 0.18 | 68 | 1021.1 |
| 20260503000503 | 6 | 264 | 0.0 | 1.6 | 0.00 | 0.20 | 0.18 | 68 | 1021.1 |
| 20260503000218 | 6 | 264 | 0.0 | 4.8 | 0.00 | 0.20 | 0.18 | 67 | 1021.1 |
| 20260502235503 | 6 | 264 | 0.0 | 4.8 | 0.00 | 0.20 | 0.18 | 68 | 1021.1 |
| 20260502235003 | 6 | 264 | 0.0 | 4.8 | 0.00 | 0.20 | 0.18 | 67 | 1021.0 |
| 20260502234503 | 6 | 264 | 1.6 | 4.8 | 0.00 | 0.20 | 0.18 | 67 | 1021.1 |
| 20260502234217 | 6 | 264 | 1.6 | 4.8 | 0.00 | 0.20 | 0.18 | 67 | 1021.0 |